Wetbulb
65.58 67.76 63.22 60.11 51.08 51.29 48.20 52.61 59.27 58.34 58.42 61.78 64.47 63.59 61.43 63.25 60.57 56.35 70.55 72.09 73.52 73.94 75.20 76.74 77.48 78.00 77.73 77.37 76.92 76.19 76.39 75.96 75.67 75.59 75.94 76.62 76.49 76.25 76.42 76.17 76.32 76.32 75.31 75.12 74.76 74.24 73.75 73.25 73.27
60.65 62.21 60.75 55.22 47.17 43.16 46.56 54.36 55.22 58.48 61.77 63.88 66.06 64.41 62.36 60.66 65.46 67.80 69.60 71.77 72.63 73.13 73.92 75.45 77.08 77.15 77.08 76.75 76.94 76.71 76.78 76.14 75.79 75.57 75.64 75.99 76.59 76.19 75.94 76.22 75.97 75.20 74.63 73.95 73.35 72.90 72.52 71.92 71.51
64.78 62.41 54.46 50.08 45.06 43.56 45.56 54.29 57.26 59.60 62.31 64.08 64.74 65.53 63.08 61.84 66.88 66.71 71.23 71.83 72.06 72.51 74.34 75.56 76.92 76.07 76.47 76.55 76.66 76.75 76.87 76.48 75.99 75.47 75.47 75.59 76.06 76.11 76.11 75.84 75.79 75.01 74.32 74.13 73.75 73.27 72.86 72.35 72.01
55.87 55.36 53.49 47.22 45.08 48.22 50.51 53.93 57.65 60.88 62.99 65.86 64.58 60.40 63.79 68.01 67.42 68.34 70.26 73.13 72.68 73.08 74.20 76.23 76.83 76.72 76.72 76.52 76.42 76.60 76.70 76.41 76.13 75.87 75.47 75.17 75.07 75.55 75.80 75.64 75.72 75.56 74.75 74.40 73.49 72.99 72.87 72.64 72.33
53.38 50.95 45.53 43.56 45.69 49.44 53.69 59.10 59.32 59.12 61.69 61.56 63.72 59.43 61.60 67.20 69.54 69.92 69.48 72.49 71.91 72.55 73.45 74.91 76.62 76.78 76.74 76.20 76.10 76.04 76.40 76.52 76.38 75.99 75.54 75.31 75.18 75.28 75.47 75.64 75.42 75.36 74.85 74.44 73.79 73.23 73.27 72.71 72.43
48.73 48.13 41.43 39.75 44.23 48.79 51.07 60.38 60.49 60.60 61.92 62.40 61.09 60.57 61.78 67.56 68.54 69.73 72.98 71.53 72.19 72.17 72.66 73.73 75.86 76.17 76.37 76.28 76.08 76.10 76.10 75.99 76.05 75.65 75.33 75.06 74.96 75.11 75.20 75.55 75.69 75.69 75.32 74.94 74.49 74.24 73.37 72.78 72.98
44.91 42.69 39.56 41.17 44.14 46.07 53.20 60.28 59.39 60.60 61.20 61.22 62.10 57.10 60.81 65.00 67.98 69.21 70.06 71.97 72.20 72.11 71.66 72.07 72.95 74.26 75.46 75.75 75.63 75.54 75.32 74.92 74.87 74.81 74.79 74.87 74.70 75.10 75.14 75.37 75.60 75.43 75.29 75.39 74.96 74.19 73.50 73.50 73.74
45.41 43.02 39.01 39.73 42.29 43.69 55.60 61.03 60.40 59.92 61.07 65.30 63.32 56.43 56.92 63.82 67.41 68.02 70.11 69.65 69.56 69.47 71.21 71.37 71.75 72.04 72.15 72.60 75.23 75.27 74.90 74.83 74.74 74.82 74.67 74.50 74.83 74.97 75.02 74.43 74.36 75.13 75.55 75.55 74.98 74.33 74.01 74.03 74.05
45.39 39.47 37.20 38.57 42.34 46.12 53.02 58.92 63.45 64.67 62.66 62.38 63.72 63.05 64.00 66.40 66.50 66.53 66.89 67.43 67.90 69.68 68.60 68.65 70.95 70.99 71.37 72.70 73.62 74.79 74.74 74.88 74.77 74.46 74.81 74.01 72.35 71.93 73.06 74.25 74.52 74.58 74.83 75.25 74.72 74.58 74.42 74.32 74.25
42.77 37.36 40.19 44.86 45.55 45.99 50.23 59.11 60.74 60.27 60.01 59.74 61.44 64.31 65.81 65.89 65.12 64.03 64.77 64.81 65.21 66.82 70.09 69.89 70.04 70.08 71.78 74.03 72.23 71.93 72.41 69.79 70.18 70.70 69.79 70.39 71.59 71.25 72.57 73.77 73.91 73.75 73.72 74.04 74.43 74.67 74.59 74.30 71.53
41.21 41.02 44.95 46.95 47.25 47.63 51.33 55.19 60.21 60.68 58.42 59.98 59.95 62.63 64.48 66.04 65.92 64.94 64.79 65.09 64.67 66.00 66.39 68.14 69.27 68.92 69.99 71.17 70.73 70.16 67.89 67.52 67.83 66.09 66.63 66.22 68.96 67.01 66.21 66.15 71.75 72.03 72.71 71.57 72.69 72.35 72.31 69.48 69.16
41.47 46.25 46.40 47.82 47.76 47.87 49.14 59.71 59.33 60.94 60.70 62.68 62.70 64.24 65.38 63.51 62.16 64.15 64.23 63.51 64.89 65.53 66.51 68.30 65.69 68.01 69.60 68.60 69.81 67.46 65.85 66.20 67.10 66.27 66.61 66.18 65.74 65.33 64.28 67.01 69.82 70.59 70.12 69.53 69.16 68.09 69.92 68.28 67.75
43.35 46.09 46.99 48.84 46.18 47.97 61.22 60.26 60.19 60.44 62.40 64.45 65.36 64.03 62.29 62.04 62.06 62.55 62.91 63.74 64.33 65.22 65.34 65.94 68.19 67.68 68.90 68.29 66.33 64.63 65.00 64.74 65.37 64.92 67.84 66.71 65.61 64.59 64.38 66.20 68.27 68.54 69.19 68.78 68.74 69.01 70.36 69.12 68.72
47.60 45.90 46.91 47.40 46.78 49.11 57.55 58.28 60.92 61.62 63.90 62.81 62.10 60.78 60.77 60.79 60.78 60.81 60.52 60.46 62.39 64.82 64.11 65.20 66.12 67.46 65.25 64.04 63.69 62.54 63.15 64.67 64.34 65.26 65.90 65.11 63.82 63.71 65.65 65.85 67.08 69.25 70.18 67.44 69.09 69.21 68.99 67.95 66.85
49.21 44.34 46.35 46.21 45.77 53.83 60.35 56.67 56.41 61.48 62.14 60.16 59.32 58.92 59.06 59.18 58.81 58.48 59.56 58.62 60.13 61.02 60.87 61.18 63.88 64.91 63.88 63.88 64.10 62.54 63.32 63.78 62.58 64.28 65.73 65.11 64.23 63.55 63.07 63.11 67.17 68.33 70.05 69.84 69.80 69.64 69.71 68.36 66.94
46.14 44.30 41.67 43.68 46.70 48.74 57.45 52.44 58.51 60.59 58.65 56.99 57.12 57.19 56.66 56.39 57.07 58.24 58.15 57.62 58.51 59.15 58.25 59.92 61.00 61.65 65.27 65.36 63.87 62.76 62.59 62.92 61.72 61.82 64.91 66.65 64.97 65.22 63.91 65.22 67.97 68.64 69.46 68.40 67.57 67.46 68.20 67.27 66.50
41.90 39.16 39.21 43.65 46.57 48.11 53.00 52.57 57.20 59.22 57.13 55.29 55.10 54.93 55.14 54.62 55.12 56.41 56.96 56.91 57.09 57.76 57.41 56.97 58.84 59.07 61.47 61.27 64.51 63.66 62.35 64.59 67.34 65.81 64.32 64.63 69.01 68.73 68.04 67.46 67.16 67.16 67.14 66.55 66.39 66.00 66.02 65.05 65.01
38.61 39.08 41.06 42.91 46.23 54.72 53.53 53.35 55.71 56.72 55.84 54.34 53.99 53.72 52.87 52.92 53.15 54.47 55.12 57.04 57.24 57.39 57.55 57.38 56.85 56.76 58.76 58.77 61.46 62.33 59.88 59.67 62.04 58.46 57.24 58.77 59.64 60.43 63.33 64.61 65.62 65.50 65.50 64.93 64.82 63.90 64.05 66.07 65.05
44.34 42.55 41.70 45.88 54.15 53.62 53.07 52.96 53.57 54.48 54.04 52.54 52.27 51.66 51.48 51.88 52.97 53.52 54.72 55.21 55.79 55.62 54.96 54.58 54.26 54.20 54.93 56.10 56.20 58.85 57.06 53.95 55.46 55.77 55.70 56.72 55.85 57.34 56.41 56.74 57.41 58.81 61.17 59.43 61.05 61.72 62.81 62.19 62.22
43.95 42.03 41.48 45.09 50.38 54.30 52.94 51.25 52.62 52.79 52.36 52.16 51.36 50.54 50.24 49.41 50.39 52.23 52.03 52.68 53.00 53.46 53.46 53.15 53.47 53.53 53.38 53.83 53.73 53.21 53.09 52.66 52.44 52.90 52.54 52.57 53.03 52.46 52.13 52.41 52.48 53.11 55.57 54.90 57.76 57.87 58.06 61.78 61.68
41.47 40.37 42.41 43.02 48.21 54.07 51.88 48.12 48.45 51.16 52.02 52.62 51.73 51.41 50.47 49.17 48.64 49.56 50.48 51.04 51.54 52.18 52.70 51.68 50.91 50.73 51.73 51.02 51.33 50.75 50.18 50.15 49.91 49.08 48.13 49.01 50.52 52.69 49.87 49.42 49.81 49.56 50.26 50.13 51.46 53.52 55.96 54.57 56.49
40.15 47.30 46.89 45.90 41.89 39.52 46.58 39.23 46.61 47.31 47.63 49.07 48.80 49.02 49.60 49.15 49.45 49.93 49.57 49.53 50.59 51.17 51.88 50.90 50.47 49.99 50.66 50.08 48.25 46.60 46.56 44.90 45.88 45.24 45.48 46.23 48.58 49.44 49.87 48.05 48.12 47.80 47.34 47.13 48.65 51.08 51.28 53.96 54.22
45.03 47.79 45.44 45.38 40.10 38.16 39.51 39.96 44.87 47.68 45.13 45.87 46.87 47.77 47.50 48.45 48.72 48.24 48.51 49.54 50.61 49.81 49.36 49.46 49.18 48.83 48.16 47.50 46.08 44.96 43.28 43.90 44.96 43.96 43.56 43.92 44.96 46.48 47.84 46.83 46.28 45.38 45.23 46.36 46.84 48.00 48.18 49.92 50.30
48.96 44.95 42.73 40.10 37.58 33.27 38.54 37.18 43.56 45.16 46.15 46.19 47.99 48.44 49.46 48.66 48.46 48.52 48.56 49.39 48.30 48.08 48.32 48.08 47.42 46.56 46.57 45.74 44.60 43.40 42.12 41.95 41.69 41.76 42.44 43.11 43.11 43.98 45.61 46.38 45.76 45.37 45.24 45.95 46.77 47.59 47.54 48.11 48.60
44.39 39.26 32.96 32.95 32.41 32.18 41.13 39.95 41.09 48.11 50.87 48.66 48.20 48.84 48.32 48.02 47.42 46.91 46.59 46.91 46.92 46.59 46.73 47.81 45.52 44.29 44.46 43.77 43.72 42.93 42.44 42.12 41.79 41.85 42.27 42.20 42.92 43.72 45.05 44.63 45.93 46.50 46.80 47.28 48.18 47.56 48.01 47.85 47.41
39.99 39.32 33.28 28.58 29.34 33.69 42.89 38.48 41.45 50.58 51.47 50.29 48.95 47.81 47.75 46.49 46.10 46.61 45.81 45.57 44.87 45.47 45.34 45.15 44.02 42.87 42.99 43.09 42.63 42.83 42.87 42.45 42.93 42.43 42.72 43.07 43.06 44.52 45.35 45.95 46.71 47.53 48.82 48.68 48.68 49.37 49.53 49.07 48.01
41.31 36.30 40.25 35.47 34.47 32.01 37.95 41.58 47.24 47.75 46.57 47.05 46.37 47.11 46.15 46.43 45.95 45.45 44.98 44.76 44.43 43.72 43.26 43.45 42.89 42.32 42.60 43.39 44.07 44.29 44.10 43.73 43.27 43.66 43.67 43.94 44.56 46.95 47.98 46.98 46.73 47.52 49.01 48.74 49.94 50.91 51.38 52.21 52.70
42.58 43.60 36.52 33.54 28.19 27.34 34.84 38.63 38.87 43.31 44.31 45.95 45.47 45.41 46.04 46.62 45.39 44.72 43.85 43.35 43.01 42.71 42.57 42.77 42.65 42.32 44.76 44.56 44.11 44.50 44.33 45.20 44.92 44.08 44.00 44.95 46.03 46.23 47.45 47.84 47.93 48.21 49.35 49.74 49.31 49.91 51.20 52.07 52.41
42.21 39.29 38.23 36.09 34.78 30.49 29.56 33.87 44.12 46.15 46.01 45.38 45.77 46.69 46.53 45.88 44.82 43.36 42.63 42.52 41.77 41.58 41.65 41.89 42.54 44.78 45.08 43.35 42.87 43.29 44.13 45.44 45.63 47.10 47.32 46.70 47.29 47.70 47.23 46.98 47.18 47.34 48.22 47.88 46.87 47.54 50.32 49.85 49.54
44.68 41.08 37.53 31.58 32.45 34.71 33.19 33.50 46.11 46.48 47.34 47.32 47.09 47.19 44.72 44.40 43.13 42.54 41.95 41.44 40.96 40.68 41.05 41.66 43.96 43.05 43.90 45.87 45.71 45.57 46.52 44.48 43.22 44.80 47.25 46.91 45.31 45.81 48.50 47.48 46.78 47.43 47.00 46.44 46.60 47.54 48.00 47.05 46.12
MSLP
1011.25 1011.45 1012.02 1012.18 1012.95 1012.74 1012.34 1011.21 1010.24 1008.97 1008.91 1008.72 1008.95 1008.70 1011.11 1012.36 1014.33 1014.06 1013.43 1012.40 1012.11 1013.50 1013.45 1013.23 1013.14 1013.13 1013.08 1013.24 1013.47 1013.51 1013.50 1013.57 1013.64 1013.54 1013.47 1013.51 1013.53 1013.49 1013.51 1013.68 1013.82 1013.96 1014.08 1014.14 1014.21 1014.18 1014.08 1013.96 1013.90
1011.15 1011.52 1012.07 1011.96 1012.68 1012.88 1011.53 1009.97 1009.49 1008.42 1008.45 1009.34 1009.48 1011.55 1010.47 1013.69 1014.68 1014.58 1013.97 1014.15 1013.66 1013.47 1013.26 1013.30 1013.47 1013.46 1013.69 1013.79 1013.92 1013.75 1013.65 1013.77 1013.87 1013.98 1014.01 1014.00 1014.02 1014.00 1013.98 1014.02 1014.13 1014.18 1014.21 1014.42 1014.60 1014.54 1014.34 1014.25 1014.17
1010.73 1010.91 1012.02 1012.19 1012.69 1012.31 1010.84 1008.92 1007.83 1008.47 1008.99 1008.86 1010.78 1012.04 1013.77 1014.65 1015.12 1016.50 1015.37 1014.56 1014.64 1014.99 1014.00 1013.53 1013.65 1013.80 1013.99 1014.16 1014.26 1014.10 1014.00 1014.02 1014.14 1014.29 1014.48 1014.50 1014.41 1014.42 1014.42 1014.48 1014.48 1014.46 1014.49 1014.51 1014.58 1014.66 1014.68 1014.50 1014.40
1010.24 1011.15 1011.93 1012.19 1012.00 1010.46 1009.57 1007.38 1007.25 1008.70 1008.63 1009.25 1010.61 1013.51 1016.26 1015.23 1013.76 1016.41 1016.40 1015.06 1015.15 1015.01 1014.56 1014.28 1014.20 1014.09 1014.24 1014.28 1014.32 1014.44 1014.48 1014.37 1014.37 1014.47 1014.54 1014.56 1014.60 1014.60 1014.69 1014.73 1014.68 1014.65 1014.55 1014.48 1014.55 1014.61 1014.59 1014.64 1014.59
1010.27 1011.49 1012.28 1012.46 1011.07 1009.85 1008.23 1007.18 1007.40 1008.59 1009.48 1010.40 1011.19 1014.19 1015.67 1015.14 1014.79 1014.69 1015.32 1015.46 1014.35 1014.62 1014.56 1014.56 1014.36 1014.28 1014.45 1014.63 1014.73 1014.85 1014.92 1014.72 1014.53 1014.59 1014.60 1014.59 1014.66 1014.88 1014.94 1014.90 1014.87 1014.76 1014.71 1014.59 1014.42 1014.35 1014.38 1014.37 1014.40
1010.98 1011.97 1012.83 1012.54 1011.18 1009.43 1008.14 1008.10 1007.69 1008.75 1010.16 1010.60 1011.68 1013.64 1015.05 1015.09 1014.36 1012.38 1012.86 1014.59 1014.61 1014.85 1014.84 1014.45 1014.25 1014.27 1014.53 1014.87 1015.14 1015.05 1015.10 1015.10 1015.12 1015.12 1015.13 1015.05 1015.07 1015.10 1015.10 1014.97 1014.89 1014.92 1014.84 1014.71 1014.46 1014.32 1014.23 1014.18 1014.18
1011.44 1012.60 1012.88 1011.99 1011.10 1009.84 1008.42 1008.72 1008.88 1009.97 1010.66 1011.19 1011.68 1013.61 1015.64 1015.57 1015.12 1014.79 1014.80 1015.05 1014.98 1015.26 1015.33 1015.50 1015.41 1014.97 1014.91 1014.93 1014.96 1015.04 1015.28 1015.37 1015.43 1015.40 1015.45 1015.46 1015.37 1015.44 1015.52 1015.35 1015.04 1014.82 1014.71 1014.63 1014.58 1014.38 1014.20 1014.01 1014.02
1011.25 1012.38 1012.57 1011.80 1011.01 1009.85 1008.90 1008.36 1009.12 1009.56 1011.11 1011.75 1012.41 1013.88 1015.65 1015.53 1015.40 1015.37 1014.91 1015.17 1014.78 1014.50 1014.47 1014.88 1015.02 1015.03 1015.09 1015.29 1015.60 1015.49 1015.38 1015.41 1015.46 1015.34 1015.41 1015.53 1015.60 1015.66 1015.75 1015.48 1015.22 1015.09 1015.07 1014.87 1014.60 1014.51 1014.30 1014.21 1013.72
1010.94 1012.13 1012.08 1011.59 1010.53 1009.10 1008.75 1009.05 1010.06 1010.38 1011.11 1012.45 1013.04 1013.65 1014.61 1015.06 1015.10 1015.00 1014.61 1014.62 1014.19 1013.57 1013.42 1013.53 1014.50 1014.56 1014.51 1014.84 1014.96 1015.34 1015.94 1015.78 1015.72 1015.69 1015.75 1015.97 1016.03 1015.87 1015.71 1015.57 1015.45 1015.22 1014.80 1014.77 1014.58 1014.32 1014.36 1014.07 1013.79
1010.98 1011.96 1010.97 1010.31 1009.39 1008.99 1008.40 1008.79 1009.64 1011.12 1011.71 1013.56 1013.86 1014.50 1014.87 1014.52 1014.58 1014.64 1014.52 1014.30 1013.62 1014.55 1014.38 1012.91 1013.17 1013.42 1014.21 1014.54 1015.10 1015.72 1015.00 1015.72 1015.94 1015.74 1016.05 1016.10 1016.19 1016.32 1016.09 1015.78 1015.37 1015.15 1014.77 1014.46 1014.31 1014.19 1013.95 1014.08 1013.96
1010.70 1010.73 1009.57 1008.99 1008.47 1008.74 1008.49 1008.56 1009.46 1011.09 1012.12 1012.63 1013.39 1013.98 1014.76 1015.28 1015.22 1015.38 1015.05 1015.05 1015.70 1015.42 1015.02 1014.89 1015.26 1014.04 1014.48 1015.25 1015.76 1015.92 1016.25 1015.99 1015.62 1015.58 1015.61 1015.60 1015.78 1016.35 1016.62 1016.63 1015.58 1014.87 1014.56 1014.15 1013.90 1013.96 1013.87 1014.09 1014.01
1010.39 1009.22 1009.07 1008.36 1007.88 1008.19 1008.13 1009.14 1010.20 1010.84 1011.93 1012.88 1014.12 1014.86 1015.55 1015.96 1016.13 1016.28 1016.39 1015.90 1016.50 1016.09 1015.74 1015.94 1015.84 1015.19 1015.35 1015.95 1015.76 1016.12 1016.11 1015.66 1015.84 1015.31 1014.95 1014.80 1015.23 1014.77 1015.34 1016.39 1016.61 1015.81 1014.43 1014.30 1013.87 1014.07 1013.82 1013.79 1014.17
1009.53 1008.54 1007.92 1007.45 1008.03 1008.35 1008.64 1009.97 1011.12 1012.70 1013.42 1014.02 1014.73 1015.49 1016.31 1016.86 1017.18 1017.61 1017.46 1017.42 1017.48 1016.78 1016.26 1016.70 1016.67 1016.30 1015.80 1015.97 1016.36 1016.46 1015.98 1016.12 1016.33 1016.41 1015.68 1015.21 1015.16 1015.42 1014.50 1016.47 1016.73 1015.61 1014.69 1014.14 1013.93 1014.15 1013.51 1013.66 1013.81
1008.35 1007.92 1007.52 1007.04 1007.40 1007.93 1009.68 1011.91 1011.59 1014.49 1014.50 1015.28 1016.07 1017.01 1017.67 1017.78 1018.04 1017.90 1017.77 1017.96 1017.69 1017.44 1017.44 1017.28 1016.52 1016.13 1016.32 1016.63 1017.03 1016.85 1016.71 1016.52 1016.95 1016.62 1015.98 1015.78 1015.55 1015.25 1015.27 1015.57 1016.07 1015.45 1014.76 1014.31 1013.52 1013.86 1013.81 1013.59 1013.58
1007.89 1007.75 1007.33 1007.12 1007.30 1009.52 1010.13 1013.48 1014.27 1014.90 1015.65 1016.27 1017.16 1017.88 1018.26 1018.54 1018.32 1018.62 1018.75 1018.62 1018.38 1017.97 1018.03 1017.71 1017.02 1016.78 1016.77 1017.37 1017.33 1017.33 1017.12 1017.25 1017.49 1016.92 1016.36 1016.24 1015.84 1015.78 1014.67 1015.20 1015.46 1015.24 1014.61 1013.60 1014.23 1013.76 1013.46 1013.82 1013.89
1008.25 1008.06 1008.07 1007.31 1007.57 1008.00 1009.10 1014.98 1015.78 1015.92 1015.72 1017.07 1017.60 1018.27 1018.67 1019.03 1019.15 1019.38 1019.52 1019.54 1019.22 1018.70 1018.38 1018.21 1017.84 1017.64 1017.92 1017.98 1017.82 1017.72 1017.71 1017.84 1018.14 1017.93 1017.14 1016.81 1016.27 1016.17 1015.59 1015.09 1014.66 1014.19 1013.75 1013.97 1013.94 1013.13 1013.22 1013.58 1013.51
1009.26 1009.07 1008.70 1008.16 1007.64 1008.65 1010.33 1015.17 1016.29 1016.72 1016.76 1017.46 1018.07 1018.65 1018.89 1019.18 1019.23 1019.21 1019.29 1019.58 1019.65 1019.65 1019.54 1019.40 1019.22 1019.04 1018.64 1018.19 1017.98 1017.96 1018.18 1018.11 1017.99 1018.17 1017.71 1017.01 1016.41 1016.10 1015.56 1015.24 1015.12 1014.74 1014.48 1014.58 1014.46 1013.79 1013.47 1013.24 1013.67
1009.76 1009.35 1008.71 1008.21 1008.25 1009.46 1011.82 1014.39 1016.18 1017.14 1017.45 1017.82 1018.61 1019.27 1019.53 1019.92 1020.46 1020.47 1020.33 1020.36 1020.47 1020.53 1020.44 1020.08 1020.02 1019.80 1019.21 1018.90 1018.83 1018.36 1018.65 1018.93 1018.91 1018.84 1018.40 1017.96 1017.59 1016.85 1016.59 1016.39 1015.90 1015.38 1014.97 1014.86 1014.91 1014.50 1013.84 1013.49 1013.75
1009.26 1008.88 1008.50 1007.98 1008.73 1010.19 1012.63 1014.72 1016.47 1017.53 1017.90 1017.97 1018.83 1019.45 1020.13 1020.38 1020.67 1020.84 1020.91 1020.90 1021.12 1021.13 1021.01 1021.15 1020.96 1020.85 1020.23 1019.89 1019.42 1019.57 1019.80 1019.83 1019.94 1019.35 1019.16 1018.86 1018.31 1017.75 1017.81 1017.20 1016.79 1016.27 1016.09 1015.93 1015.62 1015.05 1014.47 1014.09 1014.11
1008.19 1008.42 1008.55 1008.67 1009.43 1010.79 1014.00 1016.11 1017.37 1018.13 1018.25 1018.33 1018.96 1019.66 1020.25 1020.63 1021.00 1021.27 1021.51 1021.53 1021.68 1021.91 1021.90 1021.69 1021.68 1021.50 1021.28 1021.15 1020.99 1020.80 1020.44 1020.49 1020.47 1020.03 1019.88 1019.49 1019.22 1019.34 1018.80 1018.33 1017.99 1017.59 1017.07 1016.81 1016.25 1015.84 1015.35 1014.81 1014.33
1008.05 1008.32 1008.63 1009.32 1010.57 1012.28 1013.55 1016.92 1017.99 1018.58 1018.94 1019.19 1019.69 1019.99 1020.34 1020.36 1020.84 1021.31 1021.73 1021.91 1021.93 1022.19 1022.26 1022.18 1022.21 1022.13 1022.14 1021.89 1021.57 1021.23 1021.11 1021.10 1021.13 1021.02 1020.93 1020.44 1020.03 1019.50 1019.22 1018.69 1018.27 1018.06 1017.75 1017.42 1017.05 1016.66 1016.26 1015.51 1014.92
1008.20 1008.49 1008.72 1009.78 1011.02 1012.98 1013.29 1017.09 1018.55 1018.81 1019.14 1019.66 1019.94 1020.12 1020.48 1020.77 1020.93 1021.34 1022.06 1022.44 1022.64 1022.81 1022.66 1022.64 1022.79 1022.71 1022.75 1022.53 1022.45 1022.51 1022.61 1022.45 1022.28 1021.90 1021.56 1021.04 1020.44 1020.01 1019.58 1019.21 1018.80 1018.49 1018.08 1017.68 1017.35 1016.84 1016.65 1016.04 1015.38
1008.44 1008.43 1009.23 1010.07 1011.55 1012.81 1014.08 1015.75 1017.68 1019.06 1019.72 1020.01 1020.36 1020.57 1020.75 1020.53 1020.95 1021.74 1022.24 1022.72 1023.15 1023.20 1023.09 1023.15 1023.26 1023.33 1023.37 1023.26 1023.14 1023.12 1023.14 1022.91 1022.56 1022.24 1021.85 1021.37 1020.80 1020.26 1019.78 1019.40 1019.17 1018.81 1018.35 1017.86 1017.32 1016.78 1016.48 1016.21 1015.77
1008.59 1009.37 1010.46 1011.48 1012.62 1013.79 1013.89 1015.40 1017.93 1018.37 1018.75 1019.49 1019.93 1020.34 1020.58 1020.90 1021.16 1021.79 1022.40 1022.83 1023.43 1023.60 1023.42 1023.66 1023.88 1024.09 1023.88 1023.62 1023.47 1023.42 1023.45 1023.31 1023.15 1022.75 1022.39 1021.81 1021.17 1020.55 1019.90 1019.45 1019.12 1018.73 1018.38 1017.98 1017.40 1016.96 1016.67 1016.26 1015.75
1009.44 1011.04 1012.66 1014.06 1014.86 1015.28 1014.75 1015.97 1018.12 1018.00 1018.53 1019.05 1019.64 1020.29 1020.65 1020.78 1021.36 1022.03 1022.59 1023.31 1023.80 1023.88 1023.93 1024.01 1024.17 1024.29 1024.05 1023.80 1023.60 1023.44 1023.35 1023.20 1023.04 1022.72 1022.30 1021.80 1021.23 1020.58 1020.04 1019.58 1019.13 1018.67 1018.08 1017.63 1017.15 1016.83 1016.39 1016.06 1015.63
1010.47 1011.88 1013.72 1014.92 1016.06 1015.93 1015.76 1017.35 1018.22 1018.26 1018.21 1018.95 1019.60 1020.16 1020.66 1021.17 1021.56 1022.21 1023.09 1023.85 1024.15 1024.21 1024.28 1024.37 1024.48 1024.45 1024.10 1023.78 1023.54 1023.32 1023.15 1023.03 1022.73 1022.40 1022.00 1021.56 1021.10 1020.61 1019.89 1019.43 1018.96 1018.52 1018.09 1017.68 1017.26 1016.85 1016.24 1015.66 1015.32
1010.65 1012.00 1013.15 1014.75 1016.01 1016.79 1017.42 1018.40 1018.77 1019.02 1019.50 1019.77 1020.05 1020.31 1020.92 1021.46 1022.05 1022.90 1023.72 1024.22 1024.49 1024.51 1024.58 1024.60 1024.60 1024.53 1024.21 1024.03 1023.78 1023.44 1023.11 1022.78 1022.55 1022.14 1021.74 1021.30 1020.77 1020.27 1019.61 1019.36 1019.13 1018.68 1017.96 1017.55 1017.15 1016.55 1015.89 1015.33 1014.88
1010.62 1011.84 1013.60 1015.50 1017.00 1017.71 1017.70 1018.09 1018.35 1019.16 1019.62 1020.03 1020.36 1020.63 1021.02 1021.60 1022.54 1023.53 1024.37 1024.81 1024.96 1024.97 1024.91 1024.71 1024.55 1024.61 1024.40 1024.28 1024.08 1023.80 1023.39 1022.94 1022.48 1022.02 1021.51 1021.07 1020.61 1020.14 1019.77 1019.39 1018.95 1018.45 1017.85 1017.36 1016.91 1016.48 1016.05 1015.73 1015.55
1011.31 1012.41 1014.14 1015.83 1017.26 1018.03 1018.08 1017.73 1016.73 1017.54 1018.60 1019.34 1019.87 1020.44 1020.97 1021.78 1023.05 1023.95 1024.76 1025.30 1025.34 1025.25 1025.15 1024.97 1024.78 1024.77 1024.70 1024.51 1024.20 1023.91 1023.52 1023.11 1022.62 1022.14 1021.65 1021.19 1020.75 1020.35 1019.91 1019.53 1019.05 1018.57 1018.09 1017.66 1017.28 1016.97 1016.70 1016.48 1016.34
1011.40 1012.46 1014.08 1016.36 1017.58 1017.99 1018.07 1017.15 1016.46 1017.01 1017.79 1018.69 1019.57 1020.32 1021.16 1022.24 1023.42 1024.39 1025.19 1025.61 1025.62 1025.56 1025.34 1025.21 1025.13 1025.15 1024.97 1024.80 1024.51 1024.19 1023.78 1023.45 1023.06 1022.58 1022.03 1021.42 1021.11 1020.56 1019.95 1019.62 1019.29 1018.99 1018.65 1018.25 1017.91 1017.60 1017.33 1017.16 1016.96
Wind_Speed
4 5 2 2 4 4 3 7 3 7 3 4 10 20 26 25 13 5 10 10 18 7 4 9 12 13 13 13 12 12 11 11 11 11 11 10 11 11 10 9 9 8 7 6 5 4 4 5 5
3 4 2 0 5 3 7 5 11 13 1 5 17 16 20 16 24 9 4 9 9 7 5 7 13 13 12 12 10 10 11 10 10 9 9 8 8 8 8 7 7 7 7 5 3 3 3 2 2
6 4 3 3 3 4 5 7 12 2 6 4 9 16 12 3 13 15 9 8 8 5 5 10 13 14 13 12 10 9 9 10 9 8 7 6 6 5 4 4 5 6 5 5 3 2 1 1 2
0 4 4 4 6 9 7 20 6 6 9 9 21 21 3 8 17 7 18 8 9 6 7 10 12 12 12 11 10 8 8 9 8 7 6 6 5 4 3 3 3 3 4 4 2 1 1 2 4
4 4 4 3 8 6 12 6 9 6 7 10 8 10 6 2 15 13 6 6 14 8 6 7 12 11 10 9 8 8 6 6 6 6 5 5 5 4 4 3 3 4 4 4 4 4 3 3 4
5 4 5 4 6 8 8 11 14 13 8 7 11 10 5 3 4 7 17 8 8 8 5 6 12 12 10 9 7 7 5 4 3 2 1 1 2 4 5 6 6 6 6 7 6 6 5 5 5
5 5 5 3 7 8 9 8 10 10 5 7 13 8 4 5 7 7 11 11 11 9 7 6 6 7 9 8 8 7 6 4 3 2 2 3 4 5 6 8 9 9 10 9 8 7 6 6 6
5 5 4 2 3 7 8 4 10 3 5 8 6 6 5 2 2 9 15 13 10 7 8 7 6 5 5 3 3 4 6 4 2 0 3 5 6 7 9 11 10 11 10 9 8 8 7 8 8
3 4 6 3 2 8 3 4 4 7 9 6 5 6 13 12 5 14 14 11 6 8 10 9 7 6 5 4 6 4 4 2 2 4 6 6 4 5 8 11 13 14 13 11 10 9 9 10 10
5 4 8 8 5 7 7 6 11 6 5 13 19 16 13 12 11 13 13 9 8 2 3 7 12 10 6 3 3 4 6 4 4 6 8 6 6 7 12 13 18 17 18 13 11 10 9 9 4
3 7 8 12 10 4 7 10 6 14 4 7 25 19 14 6 6 2 3 5 8 4 5 7 3 7 7 4 3 5 2 2 3 7 5 4 6 7 8 12 10 6 13 5 5 4 2 3 4
5 11 9 13 6 4 5 6 10 13 7 13 14 12 7 6 7 5 6 10 8 8 10 10 8 7 6 3 5 4 2 2 2 2 4 4 2 4 9 10 12 14 4 4 3 3 3 4 4
6 10 8 14 3 2 21 15 19 16 16 14 13 14 14 11 11 9 10 11 8 10 12 8 2 4 4 8 5 3 4 3 3 1 1 1 4 7 8 6 6 14 2 1 2 5 3 4 5
5 5 9 4 4 7 28 13 13 8 15 20 19 15 11 13 11 11 14 13 12 13 13 12 12 8 6 8 7 3 1 2 5 3 5 7 4 4 4 3 10 4 4 4 4 4 5 4 4
6 2 5 2 2 16 26 17 19 19 17 19 17 13 13 12 14 13 11 12 12 10 9 13 13 9 11 8 4 3 4 4 3 2 3 4 3 3 5 4 5 6 4 5 6 6 4 3 4
6 5 2 5 4 3 17 12 12 12 18 15 17 13 14 13 12 11 11 11 12 13 15 15 15 14 10 5 4 3 3 3 2 3 4 1 3 6 5 6 7 8 6 3 3 2 3 4 3
7 3 3 9 6 6 11 15 12 11 16 15 12 11 12 10 12 12 13 12 11 11 11 13 13 12 9 7 3 4 4 4 4 5 6 10 4 7 5 4 4 7 5 4 5 3 3 1 4
5 3 5 9 0 16 18 15 16 13 16 17 14 11 11 11 8 7 9 11 10 11 11 12 11 14 11 7 4 6 8 8 5 7 9 10 7 10 8 6 7 7 7 7 7 5 4 2 3
6 2 4 7 11 18 18 17 15 12 14 16 13 12 11 11 7 6 7 7 9 10 12 11 12 11 9 8 6 4 4 4 5 7 11 11 13 14 13 9 10 10 9 9 10 7 8 3 5
2 1 4 4 1 21 16 13 7 5 9 13 14 12 11 8 7 7 6 7 7 6 7 9 9 10 8 6 5 4 4 4 4 7 11 13 13 11 11 11 10 11 9 10 9 9 6 4 7
2 3 2 1 12 20 20 7 7 5 6 10 9 10 9 10 9 7 7 6 6 7 7 8 8 8 10 8 7 5 4 4 7 8 8 8 11 9 10 10 8 8 6 6 7 8 9 4 4
5 3 5 6 5 6 1 4 5 8 7 9 11 9 9 7 6 7 8 6 7 5 6 8 8 8 9 10 9 9 6 5 4 3 3 5 6 6 7 7 6 6 5 5 5 5 3 5 6
2 2 3 2 4 5 1 7 5 7 4 7 5 7 7 8 9 8 8 8 7 6 7 7 8 9 9 9 8 5 5 3 3 4 7 6 6 6 6 6 5 6 5 6 6 6 6 3 2
1 6 9 7 4 5 7 7 6 8 9 9 7 9 9 8 9 9 8 10 7 5 8 7 9 7 6 6 6 6 5 5 4 4 3 4 4 4 6 7 5 5 5 5 5 6 6 6 4
10 8 5 6 6 6 8 6 4 10 8 12 13 10 7 8 8 8 10 8 8 8 7 8 7 6 5 6 5 6 6 5 5 5 4 5 4 4 6 5 6 5 6 6 6 6 6 5 4
2 7 6 3 2 5 7 3 5 5 7 11 10 8 8 8 7 9 9 8 7 8 8 7 7 6 6 7 7 6 5 3 3 3 3 4 3 4 6 6 6 8 7 6 6 4 4 5 5
3 1 5 5 2 2 3 3 4 7 8 9 8 8 8 8 8 12 9 8 7 7 7 7 7 6 7 7 6 7 7 7 5 7 5 4 5 5 7 6 6 6 6 5 6 5 7 8 6
4 2 5 5 1 2 3 5 6 10 11 8 7 8 7 7 11 11 9 8 6 6 6 7 6 6 7 7 7 6 7 7 6 6 7 7 7 6 6 7 7 7 7 7 8 8 9 8 7
5 3 5 5 4 5 2 5 6 17 15 14 10 9 8 7 14 11 8 6 6 6 6 5 7 7 7 6 6 7 7 7 8 8 9 8 6 8 7 7 7 7 8 8 7 8 9 9 8
4 2 5 7 3 1 3 7 5 10 15 13 10 7 7 14 13 9 7 6 6 6 5 6 6 6 5 7 8 9 8 7 7 8 8 7 7 7 9 7 6 8 9 8 8 6 6 6 7
Wind_Direction
169 183 135 58 52 57 256 256 282 281 16 268 330 80 81 56 11 351 5 89 98 96 107 102 107 109 113 113 114 112 107 107 110 113 113 109 109 105 101 103 105 108 113 118 122 119 114 110 108
151 147 31 163 81 45 273 214 215 228 36 353 45 25 52 31 14 349 30 49 72 110 110 103 104 104 105 107 109 112 113 114 112 115 117 115 110 110 105 106 109 117 120 112 99 92 93 87 82
179 206 102 102 109 183 260 216 219 181 292 284 110 46 28 357 29 346 7 80 72 35 61 101 104 104 104 104 105 109 109 113 116 118 121 122 118 118 111 107 119 129 124 122 123 104 41 25 356
43 19 21 77 270 250 228 278 115 137 12 52 118 99 130 315 151 27 323 109 91 68 54 80 89 98 105 110 111 108 112 115 119 126 136 146 151 151 153 154 153 154 154 157 165 204 267 313 316
40 64 39 338 263 294 328 25 93 118 89 42 158 108 129 169 140 148 245 177 129 112 99 92 93 94 95 103 105 109 106 112 127 145 157 163 168 181 191 200 217 213 213 212 205 217 252 281 295
9 87 35 288 313 296 292 98 98 96 135 138 81 119 136 278 318 110 143 142 88 87 85 104 114 111 107 102 89 89 102 98 83 85 126 189 211 216 219 220 225 235 235 233 227 226 237 252 279
124 90 229 260 290 328 334 103 73 87 98 44 124 92 61 346 357 11 75 89 93 86 75 42 22 76 100 117 130 127 117 100 81 31 333 301 272 261 256 249 242 236 233 232 237 239 243 250 273
105 96 287 266 334 283 342 82 129 91 78 94 142 120 145 203 163 84 98 109 117 122 129 131 123 118 108 81 57 104 124 110 100 349 294 290 294 290 278 266 261 257 255 248 246 249 253 266 263
81 57 268 247 318 269 134 125 21 36 80 56 39 104 130 149 132 108 114 110 117 128 138 136 155 166 161 130 151 117 27 19 359 346 332 328 320 302 294 280 272 265 250 244 245 246 256 258 264
109 127 240 203 218 261 287 167 153 95 86 83 86 106 129 139 113 124 122 145 150 54 320 105 163 153 150 152 112 2 107 61 1 43 28 8 344 327 313 300 281 269 263 248 243 245 254 274 280
227 206 246 279 257 220 269 81 99 130 32 169 143 142 145 124 89 1 56 65 5 18 41 45 349 80 71 95 91 80 75 353 94 68 70 72 70 24 29 341 312 276 261 251 254 273 252 301 274
198 248 235 267 286 312 302 91 77 120 139 110 119 120 106 67 49 47 27 40 12 352 31 7 12 56 70 99 77 90 62 83 77 147 133 137 163 128 42 346 324 302 285 304 288 281 199 188 258
188 262 263 250 266 115 79 79 105 91 96 106 104 79 64 56 52 46 44 40 10 1 11 353 3 72 82 83 79 60 59 10 345 228 296 272 36 30 90 326 337 297 342 208 275 275 197 207 238
240 234 262 172 143 104 104 101 99 125 127 93 86 80 74 62 52 46 39 31 27 37 24 2 21 34 79 67 55 34 16 336 23 15 57 75 123 126 153 194 253 290 257 297 346 266 241 215 213
254 229 354 338 55 111 104 53 107 117 110 98 91 80 69 57 47 44 41 39 27 34 24 21 23 26 43 44 57 18 3 17 2 9 15 23 42 245 208 165 264 277 261 184 219 225 226 252 268
355 56 18 291 99 38 90 130 126 122 109 101 95 91 78 63 65 59 53 43 31 27 23 20 21 18 30 35 54 38 5 20 322 328 357 242 286 302 311 321 315 321 324 301 296 245 216 239 247
0 280 294 308 179 134 111 142 154 133 119 115 106 99 89 72 51 43 54 49 42 38 34 30 24 11 8 15 52 70 41 11 9 8 6 6 331 336 337 351 345 332 338 353 329 311 249 193 271
273 302 233 253 235 92 111 130 147 157 141 131 125 120 107 101 87 72 62 60 51 37 31 37 30 11 3 16 351 49 47 36 27 25 11 7 2 6 14 357 9 353 4 14 357 329 317 310 297
246 245 351 36 113 98 127 138 149 148 137 127 127 123 123 119 125 99 85 72 56 45 43 34 34 14 21 10 5 14 55 21 13 17 19 15 13 19 21 14 10 8 20 11 4 340 349 319 357
84 66 352 43 101 102 108 115 119 134 130 131 134 133 131 125 126 115 97 77 67 60 46 38 32 23 22 14 355 351 351 28 11 18 18 13 18 32 25 19 13 10 2 7 8 10 347 321 6
46 39 356 166 73 110 106 67 106 104 120 127 120 126 130 137 130 125 109 100 91 76 65 51 35 37 34 26 29 22 20 22 26 25 13 358 1 16 21 12 7 4 4 357 351 356 350 329 318
37 300 75 87 77 160 141 167 199 162 132 122 132 139 146 138 129 117 120 109 92 83 70 57 45 39 41 34 38 38 35 15 11 353 340 347 350 2 3 357 352 344 334 338 325 337 316 334 336
194 58 51 79 89 121 162 94 178 148 158 154 149 137 141 135 118 115 115 120 105 80 68 58 53 44 38 50 49 44 31 2 340 344 347 339 333 341 338 348 334 333 333 317 311 319 324 299 294
302 34 28 40 54 18 267 128 200 182 182 164 147 147 141 119 105 112 104 96 88 76 70 62 64 49 46 49 35 41 29 359 354 331 331 319 312 309 321 329 316 300 287 283 294 297 288 288 286
57 53 1 2 12 225 328 61 201 289 166 156 150 143 137 124 116 108 97 93 83 68 55 70 61 48 36 33 20 16 8 357 343 330 321 331 326 320 321 317 322 315 309 311 309 298 291 276 279
99 126 147 210 220 258 10 29 306 340 118 130 132 137 128 125 123 102 103 97 87 73 65 68 59 39 13 8 1 352 351 333 316 318 322 320 308 310 305 315 323 320 311 314 319 293 286 278 276
315 3 180 132 355 70 143 69 75 86 96 120 133 127 132 144 120 103 99 93 83 69 59 66 50 25 12 14 3 355 351 346 338 336 326 309 307 313 327 318 313 311 310 321 336 344 349 356 352
162 185 36 8 102 292 247 185 193 177 163 160 156 165 171 145 104 105 92 91 84 75 63 50 36 38 25 16 2 355 344 336 339 335 334 334 333 330 331 344 344 348 350 358 358 355 359 13 19
358 23 62 108 123 174 261 255 199 187 173 171 181 184 168 129 123 110 102 98 95 79 62 48 40 47 20 1 348 350 345 345 346 346 347 341 343 359 2 356 351 354 358 2 3 2 24 28 22
150 154 119 117 261 194 155 267 325 167 173 166 173 147 119 118 111 107 113 114 87 74 53 54 61 37 22 13 356 351 351 356 355 348 354 4 356 346 8 359 360 12 14 4 10 15 17 21 22